South Paris, Maine, United States (04281)
Lat: 44.22N, Lon: 70.51W
Wx Zone: MEZ012
Local Info
Past Weather Observations for Monday, February 8, 2016

NOTE: This archive is for the closest National Weather Service station to South Paris. Information may differ from the station used for current weather conditions.

Click here for Long-term Archive

Time Weather Temperature Dewpoint Humidity Pressure Winds Precip Visibility
23:55
Overcast
18°F / -8°C 12°F / -11°C 79% 29.77 in
(1008 mb)
N 10.4 mph
(N 17 kph)
- 1 3/4SM
23:35
Overcast
18°F / -8°C 12°F / -11°C 79% 29.77 in
(1008 mb)
N 11.5 mph
(N 19 kph)
- 1 1/2SM
23:15
Overcast
18°F / -8°C 12°F / -11°C 79% 29.77 in
(1008 mb)
N 11.5 mph
(N 19 kph)
- 1 3/4SM
22:55
Overcast
18°F / -8°C 12°F / -11°C 79% 29.77 in
(1008 mb)
N 12.7 mph
(N 20 kph)
- 2 1/2SM
22:35
Overcast
18°F / -8°C 12°F / -11°C 79% 29.77 in
(1008 mb)
N 12.7 mph
(N 20 kph)
- 2 1/2SM
22:15
Overcast
18°F / -8°C 12°F / -11°C 79% 29.8 in
(1009 mb)
N 11.5 mph
(N 19 kph)
- 1 3/4SM
21:55
Overcast
18°F / -8°C 12°F / -11°C 79% 29.8 in
(1009 mb)
N 12.7 mph
(N 20 kph)
- 1 1/2SM
21:35
Overcast
18°F / -8°C 12°F / -11°C 79% 29.8 in
(1009 mb)
N 11.5 mph
(N 19 kph)
- 1 1/2SM
21:15
Overcast
18°F / -8°C 12°F / -11°C 79% 29.8 in
(1009 mb)
N 10.4 mph
(N 17 kph)
- 1SM
20:55
Overcast
18°F / -8°C 12°F / -11°C 79% 29.8 in
(1009 mb)
N 15 mph
(N 24 kph)
- 1 1/2SM
20:35
Overcast
19°F / -7°C 10°F / -12°C 68% 29.8 in
(1009 mb)
N 13.8 mph
(N 22 kph)
- 4SM
20:15
Overcast
19°F / -7°C 10°F / -12°C 68% 29.8 in
(1009 mb)
N 13.8 mph
(N 22 kph)
- 4SM
19:55
Overcast
18°F / -8°C 10°F / -12°C 73% 29.8 in
(1009 mb)
N 15 mph
(N 24 kph)
- 9SM
19:35
Mostly Cloudy
18°F / -8°C 10°F / -12°C 73% 29.8 in
(1009 mb)
N 10.4 mph
(N 17 kph)
- 5SM
19:15
Overcast
18°F / -8°C 10°F / -12°C 73% 29.8 in
(1009 mb)
N 11.5 mph
(N 19 kph)
- 3SM
18:55
Overcast
18°F / -8°C 12°F / -11°C 79% 29.8 in
(1009 mb)
NNW 11.5 mph
(NNW 19 kph)
- 3SM
18:35
Overcast
18°F / -8°C 10°F / -12°C 73% 29.8 in
(1009 mb)
N 15 mph
(N 24 kph)
- 3SM
18:15
Overcast
18°F / -8°C 10°F / -12°C 73% 29.8 in
(1009 mb)
N 15 mph
(N 24 kph)
- 2 1/2SM
17:55
Overcast
18°F / -8°C 10°F / -12°C 73% 29.8 in
(1009 mb)
N 12.7 mph
(N 20 kph)
- 2 1/2SM
17:35
Overcast
18°F / -8°C 10°F / -12°C 73% 29.77 in
(1008 mb)
N 16.1 mph
(N 26 kph)
- 1 3/4SM
17:15
Overcast
18°F / -8°C 10°F / -12°C 73% 29.77 in
(1008 mb)
N 15 mph
(N 24 kph)
- 1SM
16:55
Overcast
18°F / -8°C 10°F / -12°C 73% 29.77 in
(1008 mb)
N 15 mph
(N 24 kph)
- 1 1/2SM
16:35
Overcast
18°F / -8°C 10°F / -12°C 73% 29.77 in
(1008 mb)
N 13.8 mph
(N 22 kph)
- 1SM
16:15
Overcast
18°F / -8°C 10°F / -12°C 73% 29.8 in
(1009 mb)
N 13.8 mph
(N 22 kph)
- 1SM
15:55
Overcast
18°F / -8°C 10°F / -12°C 73% 29.8 in
(1009 mb)
N 19.6 mph
(N 32 kph)
- 1 1/2SM
15:35
Overcast
18°F / -8°C 10°F / -12°C 73% 29.8 in
(1009 mb)
N 17.3 mph
(N 28 kph)
- 1SM
15:15
Overcast
18°F / -8°C 10°F / -12°C 73% 29.8 in
(1009 mb)
N 13.8 mph
(N 22 kph)
- 1SM
14:55
Overcast
18°F / -8°C 9°F / -13°C 68% 29.8 in
(1009 mb)
NNE 15 mph
(NNE 24 kph)
- 2 1/2SM
14:35
Overcast
19°F / -7°C 7°F / -14°C 58% 29.83 in
(1010 mb)
NNE 16.1 mph
(NNE 26 kph)
- 5SM
14:15
Overcast
19°F / -7°C 5°F / -15°C 53% 29.83 in
(1010 mb)
NNE 16.1 mph
(NNE 26 kph)
- 10SM
13:55
Overcast
19°F / -7°C 7°F / -14°C 58% 29.83 in
(1010 mb)
NNE 18.4 mph
(NNE 30 kph)
- 10SM
13:35
Overcast
19°F / -7°C 5°F / -15°C 53% 29.83 in
(1010 mb)
NNE 15 mph
(NNE 24 kph)
- 10SM
13:15
Overcast
18°F / -8°C 7°F / -14°C 62% 29.86 in
(1011 mb)
NNE 15 mph
(NNE 24 kph)
- 10SM
12:55
Overcast
18°F / -8°C 5°F / -15°C 58% 29.86 in
(1011 mb)
NNE 23 mph
(NNE 37 kph)
- 10SM
12:35
Overcast
18°F / -8°C 3°F / -16°C 53% 29.89 in
(1012 mb)
NNE 16.1 mph
(NNE 26 kph)
- 10SM
12:15
Mostly Cloudy
18°F / -8°C 3°F / -16°C 53% 29.92 in
(1013 mb)
NNE 21.9 mph
(NNE 35 kph)
- 10SM
11:55
Partly Cloudy
18°F / -8°C 3°F / -16°C 53% 29.92 in
(1013 mb)
N 16.1 mph
(N 26 kph)
- 10SM
11:35
Partly Cloudy
16°F / -9°C 1°F / -17°C 53% 29.92 in
(1013 mb)
NNE 15 mph
(NNE 24 kph)
- 10SM
11:15
Partly Cloudy
16°F / -9°C 1°F / -17°C 53% 29.95 in
(1014 mb)
NNE 15 mph
(NNE 24 kph)
- 10SM
10:55
Partly Cloudy
16°F / -9°C °F / -18°C 48% 29.95 in
(1014 mb)
N 18.4 mph
(N 30 kph)
- 10SM
10:35
Clear
16°F / -9°C °F / -18°C 48% 29.95 in
(1014 mb)
N 18.4 mph
(N 30 kph)
- 10SM
10:15
Clear
16°F / -9°C -2°F / -19°C 45% 29.95 in
(1014 mb)
NNE 20.7 mph
(NNE 33 kph)
- 10SM
09:55
Clear
16°F / -9°C -2°F / -19°C 45% 29.95 in
(1014 mb)
N 18.4 mph
(N 30 kph)
- 10SM
09:35
Clear
14°F / -10°C -2°F / -19°C 48% 29.98 in
(1015 mb)
N 19.6 mph
(N 32 kph)
- 10SM
09:15
Clear
14°F / -10°C -2°F / -19°C 48% 30.01 in
(1016 mb)
NNE 18.4 mph
(NNE 30 kph)
- 10SM
08:55
Clear
14°F / -10°C -4°F / -20°C 44% 30.01 in
(1016 mb)
N 20.7 mph
(N 33 kph)
- 10SM
08:35
Clear
14°F / -10°C -2°F / -19°C 48% 30.01 in
(1016 mb)
N 18.4 mph
(N 30 kph)
- 10SM
08:15
Clear
14°F / -10°C -2°F / -19°C 48% 30.01 in
(1016 mb)
NE 17.3 mph
(NE 28 kph)
- 10SM
07:55
Clear
14°F / -10°C -4°F / -20°C 44% 30.04 in
(1017 mb)
N 11.5 mph
(N 19 kph)
- 10SM
07:35
Clear
14°F / -10°C -4°F / -20°C 44% 30.04 in
(1017 mb)
NNE 13.8 mph
(NNE 22 kph)
- 10SM
07:15
Clear
14°F / -10°C -4°F / -20°C 44% 30.01 in
(1016 mb)
NNE 16.1 mph
(NNE 26 kph)
- 10SM
06:55
Clear
14°F / -10°C -4°F / -20°C 44% 30.01 in
(1016 mb)
N 16.1 mph
(N 26 kph)
- 10SM
06:35
Clear
14°F / -10°C -6°F / -21°C 41% 30.01 in
(1016 mb)
NNE 17.3 mph
(NNE 28 kph)
- 10SM
06:15
Clear
14°F / -10°C -6°F / -21°C 41% 30.01 in
(1016 mb)
NNE 19.6 mph
(NNE 32 kph)
- 10SM
05:55
Clear
16°F / -9°C -6°F / -21°C 37% 30.04 in
(1017 mb)
NNE 15 mph
(NNE 24 kph)
- 10SM
05:35
Clear
16°F / -9°C -4°F / -20°C 41% 30.04 in
(1017 mb)
NNE 19.6 mph
(NNE 32 kph)
- 10SM
05:15
Clear
16°F / -9°C -6°F / -21°C 37% 30.06 in
(1018 mb)
NE 16.1 mph
(NE 26 kph)
- 10SM
04:55
Clear
16°F / -9°C -6°F / -21°C 37% 30.06 in
(1018 mb)
NE 15 mph
(NE 24 kph)
- 10SM
04:35
Clear
16°F / -9°C -6°F / -21°C 37% 30.06 in
(1018 mb)
NE 16.1 mph
(NE 26 kph)
- 10SM
04:15
Clear
16°F / -9°C -6°F / -21°C 37% 30.06 in
(1018 mb)
NE 17.3 mph
(NE 28 kph)
- 10SM
03:55
Clear
16°F / -9°C -6°F / -21°C 37% 30.06 in
(1018 mb)
NNE 17.3 mph
(NNE 28 kph)
- 10SM
03:35
Clear
18°F / -8°C -6°F / -21°C 35% 30.09 in
(1019 mb)
NNE 17.3 mph
(NNE 28 kph)
- 10SM
03:15
Clear
18°F / -8°C -6°F / -21°C 35% 30.09 in
(1019 mb)
NE 13.8 mph
(NE 22 kph)
- 10SM
02:55
Clear
18°F / -8°C -4°F / -20°C 38% 30.09 in
(1019 mb)
NNE 17.3 mph
(NNE 28 kph)
- 10SM
02:35
Clear
18°F / -8°C -2°F / -19°C 41% 30.12 in
(1020 mb)
NE 12.7 mph
(NE 20 kph)
- 10SM
02:15
Clear
19°F / -7°C -2°F / -19°C 38% 30.12 in
(1020 mb)
NE 13.8 mph
(NE 22 kph)
- 10SM
01:55
Clear
19°F / -7°C -2°F / -19°C 38% 30.12 in
(1020 mb)
NE 12.7 mph
(NE 20 kph)
- 10SM
01:35
Clear
19°F / -7°C °F / -18°C 42% 30.15 in
(1021 mb)
NE 8.1 mph
(NE 13 kph)
- 10SM
01:15
Clear
21°F / -6°C °F / -18°C 38% 30.15 in
(1021 mb)
NE 12.7 mph
(NE 20 kph)
- 10SM
00:55
Clear
21°F / -6°C 1°F / -17°C 42% 30.15 in
(1021 mb)
NE 12.7 mph
(NE 20 kph)
- 10SM
00:35
Clear
23°F / -5°C 1°F / -17°C 39% 30.15 in
(1021 mb)
NE 12.7 mph
(NE 20 kph)
- 10SM
00:15
Clear
23°F / -5°C 1°F / -17°C 39% 30.15 in
(1021 mb)
NE 10.4 mph
(NE 17 kph)
- 10SM
Time Weather Temperature Dewpoint Humidity Pressure Winds Precip Visibility


Weather for websites

WeatherForYou.com, LLC is not responsible for any damages or problems caused by this service. Current weather conditions are obtained from the closest station including government and personal stations which may have varying degrees of accuracy. Weather forecasts are derived from the NOAA NDFD. Like all things, this site belongs to Jesus Christ... He just trusts us to maintain it. If you have any questions or comments email webmaster@weatherforyou.com

Copyright © 2016, WeatherForYou.com LLC. All rights reserved.